This is the latest recevied weather packets stored in our database for station/object N6RDS-8. If no packets are shown the sender has not sent any weather packets the latest 10 day(s).
| Time | Temp. | Humidity | Pressure | Rain* | Wind** | Luminosity | Snow |
|---|---|---|---|---|---|---|---|
| 1778018950 | 23.89° C | 30% | 1014.1 hPa | 0 mm | - | 630 W/m² | - |
| 1778018647 | 23.89° C | 29% | 1014 hPa | 0 mm | - | 631 W/m² | - |
| 1778018345 | 23.89° C | 31% | 1014.1 hPa | 0 mm | - | 646 W/m² | - |
| 1778018043 | 23.89° C | 32% | 1014 hPa | 0 mm | - | 648 W/m² | - |
| 1778017740 | 23.89° C | 31% | 1014.1 hPa | 0 mm | - | 99 W/m² | - |
| 1778017438 | 23.89° C | 33% | 1014.2 hPa | 0 mm | - | 696 W/m² | - |
| 1778017135 | 23.89° C | 32% | 1014.3 hPa | 0 mm | - | 679 W/m² | - |
| 1778016833 | 24.44° C | 30% | 1014.3 hPa | 0 mm | - | 676 W/m² | - |
| 1778016528 | 23.89° C | 32% | 1014.3 hPa | 0 mm | - | 720 W/m² | - |
| 1778016226 | 25° C | 31% | 1014.5 hPa | 0 mm | - | 723 W/m² | - |
| 1778015922 | 24.44° C | 30% | 1014.2 hPa | 0 mm | - | 711 W/m² | - |
| 1778015620 | 24.44° C | 31% | 1014.7 hPa | 0 mm | - | 740 W/m² | - |
| 1778015316 | 23.89° C | 31% | 1014.6 hPa | 0 mm | - | 736 W/m² | - |
| 1778015013 | 24.44° C | 30% | 1014.5 hPa | 0 mm | - | 755 W/m² | - |
| 1778014710 | 23.89° C | 33% | 1014.9 hPa | 0 mm | - | 803 W/m² | - |
| 1778014408 | 24.44° C | 34% | 1014.8 hPa | 0 mm | - | 734 W/m² | - |
| 1778014104 | 23.89° C | 34% | 1014.8 hPa | 0 mm | - | 219 W/m² | - |
| 1778013803 | 23.33° C | 35% | 1014.7 hPa | 0 mm | - | 170 W/m² | - |
| 1778013500 | 23.33° C | 35% | 1015.1 hPa | 0 mm | - | 645 W/m² | - |
| 1778013196 | 23.89° C | 34% | 1014.8 hPa | 0 mm | - | 252 W/m² | - |
| 1778012892 | 24.44° C | 35% | 1015 hPa | 0 mm | - | 874 W/m² | - |
| 1778012589 | 23.89° C | 34% | 1014.8 hPa | 0 mm | - | 886 W/m² | - |
| 1778012286 | 25° C | 35% | 1014.8 hPa | 0 mm | - | 171 W/m² | - |
| 1778011984 | 23.89° C | 35% | 1015 hPa | 0 mm | - | 201 W/m² | - |
| 1778011681 | 23.89° C | 36% | 1015 hPa | 0 mm | - | 936 W/m² | - |
* Rain latest hour (hover to see other rain measurements)
** Current wind speed in m/s (hover to see current wind gust speed)